Location: Monteux
(44.0348°N, 4.9972°E)
Time: 17:22:57
(UTC+00:00)

Cosmos 1470 Rocket - Pass Details

Date: 30 November 2020
Orbit: 604 x 633 km, 82.5° (Epoch: 23 January)

Event Time Altitude Azimuth Distance (km) Brightness Sun altitude
Rises 16:50:06 0° 0° (N) 2,873 6.8 -8.4°
Reaches altitude 10° 16:52:32 10° 11° (N) 1,963 5.8 -8.8°
Maximum altitude 16:56:25 32° 75° (ENE) 1,058 4.2 -9.4°
Drops below altitude 10° 17:00:16 10° 138° (SE) 1,948 5.9 -10.1°
Sets 17:02:40 0° 149° (SSE) 2,849 6.9 -10.5°
